Year,Month,Day,Hour,Minute,Value (Times are PST for windspeed in km/hr)
2020,10,30,00,00,0.70
2020,10,30,00,01,2.30
2020,10,30,00,02,2.30
2020,10,30,00,03,2.20
2020,10,30,00,04,1.90
2020,10,30,00,05,0.40
2020,10,30,00,06,0.00
2020,10,30,00,07,0.20
2020,10,30,00,08,1.30
2020,10,30,00,09,1.40
2020,10,30,00,10,0.60
2020,10,30,00,11,0.60
2020,10,30,00,12,1.60
2020,10,30,00,13,0.70
2020,10,30,00,14,0.00
2020,10,30,00,15,1.00
2020,10,30,00,16,1.80
2020,10,30,00,17,1.10
2020,10,30,00,18,1.00
2020,10,30,00,19,2.00
2020,10,30,00,20,1.90
2020,10,30,00,21,0.10
2020,10,30,00,22,0.00
2020,10,30,00,23,0.70
2020,10,30,00,24,0.10
2020,10,30,00,25,0.10
2020,10,30,00,26,0.30
2020,10,30,00,27,0.80
2020,10,30,00,28,0.20
2020,10,30,00,29,0.00
2020,10,30,00,30,0.00
2020,10,30,00,31,0.30
2020,10,30,00,32,0.30
2020,10,30,00,33,2.60
2020,10,30,00,34,2.60
2020,10,30,00,35,1.30
2020,10,30,00,36,1.40
2020,10,30,00,37,1.70
2020,10,30,00,38,1.90
2020,10,30,00,39,1.40
2020,10,30,00,40,1.60
2020,10,30,00,41,1.00
2020,10,30,00,42,1.10
2020,10,30,00,43,2.20
2020,10,30,00,44,2.80
2020,10,30,00,45,2.10
2020,10,30,00,46,2.20
2020,10,30,00,47,2.90
2020,10,30,00,48,3.10
2020,10,30,00,49,2.80
2020,10,30,00,50,4.30
2020,10,30,00,51,3.90
2020,10,30,00,52,3.30
2020,10,30,00,53,2.60
2020,10,30,00,54,1.20
2020,10,30,00,55,0.70
2020,10,30,00,56,2.60
2020,10,30,00,57,1.70
2020,10,30,00,58,1.70
2020,10,30,00,59,4.00
2020,10,30,01,00,2.30
2020,10,30,01,01,2.50
2020,10,30,01,02,3.30
2020,10,30,01,03,3.20
2020,10,30,01,04,0.60
2020,10,30,01,05,3.20
2020,10,30,01,06,2.60
2020,10,30,01,07,2.00
2020,10,30,01,08,2.40
2020,10,30,01,09,0.90
2020,10,30,01,10,3.20
2020,10,30,01,11,1.70
2020,10,30,01,12,2.90
2020,10,30,01,13,0.90
2020,10,30,01,14,2.00
2020,10,30,01,15,2.00
2020,10,30,01,16,0.50
2020,10,30,01,17,2.70
2020,10,30,01,18,0.30
2020,10,30,01,19,2.10
2020,10,30,01,20,1.80
2020,10,30,01,21,2.60
2020,10,30,01,22,1.30
2020,10,30,01,23,1.70
2020,10,30,01,24,2.90
2020,10,30,01,25,1.50
2020,10,30,01,26,2.20
2020,10,30,01,27,1.90
2020,10,30,01,28,0.00
2020,10,30,01,29,0.20
2020,10,30,01,30,0.70
2020,10,30,01,31,1.20
2020,10,30,01,32,1.50
2020,10,30,01,33,0.40
2020,10,30,01,34,0.50
2020,10,30,01,35,1.40
2020,10,30,01,36,0.10
2020,10,30,01,37,0.00
2020,10,30,01,38,0.00
2020,10,30,01,39,0.00
2020,10,30,01,40,0.20
2020,10,30,01,41,1.30
2020,10,30,01,42,2.50
2020,10,30,01,43,2.30
2020,10,30,01,44,0.80
2020,10,30,01,45,0.30
2020,10,30,01,46,3.50
2020,10,30,01,47,0.60
2020,10,30,01,48,1.00
2020,10,30,01,49,1.70
2020,10,30,01,50,0.50
2020,10,30,01,51,0.70
2020,10,30,01,52,1.70
2020,10,30,01,53,3.20
2020,10,30,01,54,2.00
2020,10,30,01,55,2.40
2020,10,30,01,56,3.00
2020,10,30,01,57,3.10
2020,10,30,01,58,1.60
2020,10,30,01,59,1.20
2020,10,30,02,00,1.30
2020,10,30,02,01,1.10
2020,10,30,02,02,0.60
2020,10,30,02,03,0.70
2020,10,30,02,04,1.80
2020,10,30,02,05,0.50
2020,10,30,02,06,1.40
2020,10,30,02,07,2.80
2020,10,30,02,08,3.00
2020,10,30,02,09,5.00
2020,10,30,02,10,2.20
2020,10,30,02,11,1.20
2020,10,30,02,12,1.50
2020,10,30,02,13,3.60
2020,10,30,02,14,2.40
2020,10,30,02,15,0.60
2020,10,30,02,16,0.00
2020,10,30,02,17,1.60
2020,10,30,02,18,2.90
2020,10,30,02,19,1.20
2020,10,30,02,20,5.80
2020,10,30,02,21,2.70
2020,10,30,02,22,1.40
2020,10,30,02,23,2.50
2020,10,30,02,24,2.30
2020,10,30,02,25,5.40
2020,10,30,02,26,3.00
2020,10,30,02,27,0.70
2020,10,30,02,28,0.50
2020,10,30,02,29,3.20
2020,10,30,02,30,2.30
2020,10,30,02,31,3.40
2020,10,30,02,32,1.20
2020,10,30,02,33,3.10
2020,10,30,02,34,2.30
2020,10,30,02,35,2.60
2020,10,30,02,36,2.20
2020,10,30,02,37,0.50
2020,10,30,02,38,1.50
2020,10,30,02,39,2.20
2020,10,30,02,40,1.10
2020,10,30,02,41,2.40
2020,10,30,02,42,2.50
2020,10,30,02,43,1.40
2020,10,30,02,44,2.60
2020,10,30,02,45,0.20
2020,10,30,02,46,2.30
2020,10,30,02,47,3.80
2020,10,30,02,48,2.80
2020,10,30,02,49,1.40
2020,10,30,02,50,1.80
2020,10,30,02,51,3.60
2020,10,30,02,52,1.20
2020,10,30,02,53,2.40
2020,10,30,02,54,0.60
2020,10,30,02,55,2.30
2020,10,30,02,56,1.30
2020,10,30,02,57,2.60
2020,10,30,02,58,1.60
2020,10,30,02,59,1.60
2020,10,30,03,00,1.70
2020,10,30,03,01,0.20
2020,10,30,03,02,0.90
2020,10,30,03,03,2.00
2020,10,30,03,04,2.40
2020,10,30,03,05,2.20
2020,10,30,03,06,1.30
2020,10,30,03,07,1.50
2020,10,30,03,08,1.80
2020,10,30,03,09,0.60
2020,10,30,03,10,4.30
2020,10,30,03,11,1.50
2020,10,30,03,12,1.90
2020,10,30,03,13,2.30
2020,10,30,03,14,3.80
2020,10,30,03,15,2.40
2020,10,30,03,16,2.30
2020,10,30,03,17,1.60
2020,10,30,03,18,2.70
2020,10,30,03,19,2.70
2020,10,30,03,20,4.20
2020,10,30,03,21,3.10
2020,10,30,03,22,2.80
2020,10,30,03,23,3.20
2020,10,30,03,24,1.40
2020,10,30,03,25,1.60
2020,10,30,03,26,2.80
2020,10,30,03,27,1.50
2020,10,30,03,28,2.70
2020,10,30,03,29,1.40
2020,10,30,03,30,3.30
2020,10,30,03,31,4.50
2020,10,30,03,32,2.30
2020,10,30,03,33,2.30
2020,10,30,03,34,1.90
2020,10,30,03,35,2.40
2020,10,30,03,36,3.40
2020,10,30,03,37,4.10
2020,10,30,03,38,3.20
2020,10,30,03,39,3.90
2020,10,30,03,40,4.40
2020,10,30,03,41,4.40
2020,10,30,03,42,5.40
2020,10,30,03,43,3.00
2020,10,30,03,44,1.70
2020,10,30,03,45,2.30
2020,10,30,03,46,0.70
2020,10,30,03,47,0.80
2020,10,30,03,48,4.00
2020,10,30,03,49,2.50
2020,10,30,03,50,4.20
2020,10,30,03,51,3.00
2020,10,30,03,52,3.30
2020,10,30,03,53,1.60
2020,10,30,03,54,0.10
2020,10,30,03,55,2.10
2020,10,30,03,56,0.60
2020,10,30,03,57,1.40
2020,10,30,03,58,1.30
2020,10,30,03,59,2.50
2020,10,30,04,00,0.60
2020,10,30,04,01,3.40
2020,10,30,04,02,2.50
2020,10,30,04,03,3.80
2020,10,30,04,04,2.10
2020,10,30,04,05,2.60
2020,10,30,04,06,3.80
2020,10,30,04,07,5.40
2020,10,30,04,08,1.30
2020,10,30,04,09,4.50
2020,10,30,04,10,2.60
2020,10,30,04,11,2.90
2020,10,30,04,12,3.00
2020,10,30,04,13,2.70
2020,10,30,04,14,1.80
2020,10,30,04,15,2.70
2020,10,30,04,16,1.20
2020,10,30,04,17,2.20
2020,10,30,04,18,1.10
2020,10,30,04,19,1.00
2020,10,30,04,20,0.10
2020,10,30,04,21,0.70
2020,10,30,04,22,0.70
2020,10,30,04,23,2.00
2020,10,30,04,24,0.20
2020,10,30,04,25,0.40
2020,10,30,04,26,0.10
2020,10,30,04,27,2.20
2020,10,30,04,28,2.10
2020,10,30,04,29,0.20
2020,10,30,04,30,0.80
2020,10,30,04,31,2.20
2020,10,30,04,32,3.80
2020,10,30,04,33,3.00
2020,10,30,04,34,3.70
2020,10,30,04,35,3.00
2020,10,30,04,36,2.60
2020,10,30,04,37,2.50
2020,10,30,04,38,1.70
2020,10,30,04,39,1.70
2020,10,30,04,40,1.70
2020,10,30,04,41,0.10
2020,10,30,04,42,0.90
2020,10,30,04,43,0.70
2020,10,30,04,44,0.20
2020,10,30,04,45,0.40
2020,10,30,04,46,0.50
2020,10,30,04,47,0.10
2020,10,30,04,48,0.40
2020,10,30,04,49,0.00
2020,10,30,04,50,0.00
2020,10,30,04,51,0.10
2020,10,30,04,52,0.10
2020,10,30,04,53,0.00
2020,10,30,04,54,0.90
2020,10,30,04,55,2.10
2020,10,30,04,56,1.00
2020,10,30,04,57,2.40
2020,10,30,04,58,0.10
2020,10,30,04,59,1.60
2020,10,30,05,00,0.10
2020,10,30,05,01,1.10
2020,10,30,05,02,1.40
2020,10,30,05,03,2.30
2020,10,30,05,04,3.70
2020,10,30,05,05,0.70
2020,10,30,05,06,3.10
2020,10,30,05,07,0.60
2020,10,30,05,08,2.20
2020,10,30,05,09,2.80
2020,10,30,05,10,1.20
2020,10,30,05,11,0.70
2020,10,30,05,12,0.60
2020,10,30,05,13,0.30
2020,10,30,05,14,1.60
2020,10,30,05,15,0.00
2020,10,30,05,16,0.00
2020,10,30,05,17,0.40
2020,10,30,05,18,0.60
2020,10,30,05,19,0.20
2020,10,30,05,20,0.80
2020,10,30,05,21,0.20
2020,10,30,05,22,0.00
2020,10,30,05,23,0.30
2020,10,30,05,24,0.00
2020,10,30,05,25,0.00
2020,10,30,05,26,0.00
2020,10,30,05,27,0.00
2020,10,30,05,28,0.10
2020,10,30,05,29,0.40
2020,10,30,05,30,0.40
2020,10,30,05,31,0.00
2020,10,30,05,32,0.10
2020,10,30,05,33,0.00
2020,10,30,05,34,0.80
2020,10,30,05,35,0.40
2020,10,30,05,36,1.60
2020,10,30,05,37,0.20
2020,10,30,05,38,0.40
2020,10,30,05,39,1.60
2020,10,30,05,40,1.10
2020,10,30,05,41,5.20
2020,10,30,05,42,6.10
2020,10,30,05,43,6.40
2020,10,30,05,44,12.60
2020,10,30,05,45,7.70
2020,10,30,05,46,3.80
2020,10,30,05,47,2.30
2020,10,30,05,48,5.20
2020,10,30,05,49,1.20
2020,10,30,05,50,1.60
2020,10,30,05,51,0.20
2020,10,30,05,52,1.00
2020,10,30,05,53,0.40
2020,10,30,05,54,3.80
2020,10,30,05,55,0.40
2020,10,30,05,56,2.20
2020,10,30,05,57,2.30
2020,10,30,05,58,1.20
2020,10,30,05,59,0.40
2020,10,30,06,00,0.60
2020,10,30,06,01,0.00
2020,10,30,06,02,0.00
2020,10,30,06,03,0.00
2020,10,30,06,04,0.70
2020,10,30,06,05,1.10
2020,10,30,06,06,2.10
2020,10,30,06,07,0.60
2020,10,30,06,08,0.30
2020,10,30,06,09,0.70
2020,10,30,06,10,1.70
2020,10,30,06,11,0.90
2020,10,30,06,12,1.00
2020,10,30,06,13,0.90
2020,10,30,06,14,0.00
2020,10,30,06,15,0.20
2020,10,30,06,16,0.10
2020,10,30,06,17,1.90
2020,10,30,06,18,0.10
2020,10,30,06,19,1.40
2020,10,30,06,20,5.30
2020,10,30,06,21,3.20
2020,10,30,06,22,2.90
2020,10,30,06,23,4.20
2020,10,30,06,24,1.20
2020,10,30,06,25,1.50
2020,10,30,06,26,4.70
2020,10,30,06,27,2.80
2020,10,30,06,28,3.00
2020,10,30,06,29,1.10
2020,10,30,06,30,2.80
2020,10,30,06,31,3.90
2020,10,30,06,32,3.80
2020,10,30,06,33,2.80
2020,10,30,06,34,4.10
2020,10,30,06,35,1.90
2020,10,30,06,36,2.10
2020,10,30,06,37,2.70
2020,10,30,06,38,3.10
2020,10,30,06,39,3.20
2020,10,30,06,40,3.30
2020,10,30,06,41,1.70
2020,10,30,06,42,4.50
2020,10,30,06,43,1.90
2020,10,30,06,44,0.80
2020,10,30,06,45,3.20
2020,10,30,06,46,0.80
2020,10,30,06,47,2.80
2020,10,30,06,48,1.00
2020,10,30,06,49,2.70
2020,10,30,06,50,1.50
2020,10,30,06,51,1.70
2020,10,30,06,52,1.20
2020,10,30,06,53,1.50
2020,10,30,06,54,7.10
2020,10,30,06,55,2.20
2020,10,30,06,56,2.90
2020,10,30,06,57,1.40
2020,10,30,06,58,2.30
2020,10,30,06,59,2.20
2020,10,30,07,00,2.10
2020,10,30,07,01,1.90
2020,10,30,07,02,2.00
2020,10,30,07,03,4.90
2020,10,30,07,04,1.70
2020,10,30,07,05,1.40
2020,10,30,07,06,1.40
2020,10,30,07,07,1.70
2020,10,30,07,08,1.60
2020,10,30,07,09,2.30
2020,10,30,07,10,2.00
2020,10,30,07,11,2.50
2020,10,30,07,12,4.00
2020,10,30,07,13,3.20
2020,10,30,07,14,3.50
2020,10,30,07,15,5.10
2020,10,30,07,16,8.60
2020,10,30,07,17,5.00
2020,10,30,07,18,2.10
2020,10,30,07,19,5.60
2020,10,30,07,20,1.90
2020,10,30,07,21,4.10
2020,10,30,07,22,2.00
2020,10,30,07,23,2.60
2020,10,30,07,24,1.70
2020,10,30,07,25,1.40
2020,10,30,07,26,5.70
2020,10,30,07,27,5.60
2020,10,30,07,28,5.70
2020,10,30,07,29,5.40
2020,10,30,07,30,3.40
2020,10,30,07,31,4.40
2020,10,30,07,32,2.50
2020,10,30,07,33,2.30
2020,10,30,07,34,3.20
2020,10,30,07,35,2.40
2020,10,30,07,36,4.00
2020,10,30,07,37,1.90
2020,10,30,07,38,3.00
2020,10,30,07,39,2.10
2020,10,30,07,40,1.20
2020,10,30,07,41,1.20
2020,10,30,07,42,1.10
2020,10,30,07,43,2.00
2020,10,30,07,44,1.10
2020,10,30,07,45,1.70
2020,10,30,07,46,2.40
2020,10,30,07,47,2.10
2020,10,30,07,48,2.30
2020,10,30,07,49,3.00
2020,10,30,07,50,2.40
2020,10,30,07,51,3.20
2020,10,30,07,52,5.00
2020,10,30,07,53,2.80
2020,10,30,07,54,3.50
2020,10,30,07,55,1.60
2020,10,30,07,56,3.30
2020,10,30,07,57,2.40
2020,10,30,07,58,4.90
2020,10,30,07,59,1.50
2020,10,30,08,00,1.20
2020,10,30,08,01,2.30
2020,10,30,08,02,0.90
2020,10,30,08,03,2.70
2020,10,30,08,04,1.90
2020,10,30,08,05,5.50
2020,10,30,08,06,3.70
2020,10,30,08,07,2.70
2020,10,30,08,08,3.30
2020,10,30,08,09,1.10
2020,10,30,08,10,2.30
2020,10,30,08,11,2.30
2020,10,30,08,12,0.90
2020,10,30,08,13,1.70
2020,10,30,08,14,3.50
2020,10,30,08,15,5.40
2020,10,30,08,16,3.70
2020,10,30,08,17,1.70
2020,10,30,08,18,9.30
2020,10,30,08,19,6.20
2020,10,30,08,20,2.20
2020,10,30,08,21,4.20
2020,10,30,08,22,2.80
2020,10,30,08,23,5.00
2020,10,30,08,24,2.40
2020,10,30,08,25,5.10
2020,10,30,08,26,4.60
2020,10,30,08,27,3.80
2020,10,30,08,28,7.30
2020,10,30,08,29,6.90
2020,10,30,08,30,7.50
2020,10,30,08,31,3.10
2020,10,30,08,32,3.90
2020,10,30,08,33,4.80
2020,10,30,08,34,4.30
2020,10,30,08,35,11.90
2020,10,30,08,36,10.40
2020,10,30,08,37,13.40
2020,10,30,08,38,5.10
2020,10,30,08,39,3.00
2020,10,30,08,40,5.50
2020,10,30,08,41,10.90
2020,10,30,08,42,11.50
2020,10,30,08,43,10.60
2020,10,30,08,44,5.70
2020,10,30,08,45,11.10
2020,10,30,08,46,5.50
2020,10,30,08,47,4.50
2020,10,30,08,48,3.20
2020,10,30,08,49,3.20
2020,10,30,08,50,2.20
2020,10,30,08,51,3.80
2020,10,30,08,52,3.10
2020,10,30,08,53,9.30
2020,10,30,08,54,5.70
2020,10,30,08,55,9.40
2020,10,30,08,56,7.70
2020,10,30,08,57,6.70
2020,10,30,08,58,5.40
2020,10,30,08,59,10.60
2020,10,30,09,00,5.90
2020,10,30,09,01,3.20
2020,10,30,09,02,3.00
2020,10,30,09,03,5.40
2020,10,30,09,10,4.20
2020,10,30,09,11,3.00
2020,10,30,09,12,1.50
2020,10,30,09,13,4.50
2020,10,30,09,14,8.20
2020,10,30,09,15,10.60
2020,10,30,09,16,4.60
2020,10,30,09,17,7.10
2020,10,30,09,18,4.40
2020,10,30,09,19,3.70
2020,10,30,09,20,4.10
2020,10,30,09,21,2.20
2020,10,30,09,22,1.70
2020,10,30,09,23,1.60
2020,10,30,09,24,3.50
2020,10,30,09,25,2.30
2020,10,30,09,26,2.10
2020,10,30,09,27,2.70
2020,10,30,09,28,2.70
2020,10,30,09,29,3.00
2020,10,30,09,30,3.20
2020,10,30,09,31,0.30
2020,10,30,09,32,1.30
2020,10,30,09,33,2.00
2020,10,30,09,34,3.50
2020,10,30,09,35,1.10
2020,10,30,09,36,2.40
2020,10,30,09,37,6.30
2020,10,30,09,38,4.20
2020,10,30,09,39,1.50
2020,10,30,09,40,3.70
2020,10,30,09,41,0.10
2020,10,30,09,42,2.00
2020,10,30,09,43,5.80
2020,10,30,09,44,4.90
2020,10,30,09,45,2.10
2020,10,30,09,46,3.30
2020,10,30,09,47,0.80
2020,10,30,09,48,3.50
2020,10,30,09,49,3.80
2020,10,30,09,50,7.00
2020,10,30,09,51,5.80
2020,10,30,09,52,2.90
2020,10,30,09,53,3.50
2020,10,30,09,54,3.10
2020,10,30,09,55,1.20
2020,10,30,09,56,1.60
2020,10,30,09,57,0.70
2020,10,30,09,58,0.20
2020,10,30,09,59,1.40
2020,10,30,10,00,3.30
2020,10,30,10,01,0.10
2020,10,30,10,02,5.60
2020,10,30,10,03,1.10
2020,10,30,10,04,1.90
2020,10,30,10,05,2.90
2020,10,30,10,06,2.30
2020,10,30,10,07,5.90
2020,10,30,10,08,4.80
2020,10,30,10,09,0.50
2020,10,30,10,10,3.40
2020,10,30,10,11,6.40
2020,10,30,10,12,1.00
2020,10,30,10,13,0.40
2020,10,30,10,14,0.30
2020,10,30,10,15,1.70
2020,10,30,10,16,1.20
2020,10,30,10,17,0.40
2020,10,30,10,18,1.20
2020,10,30,10,19,2.70
2020,10,30,10,20,2.40
2020,10,30,10,21,3.50
2020,10,30,10,22,2.60
2020,10,30,10,23,0.70
2020,10,30,10,24,1.30
2020,10,30,10,25,0.70
2020,10,30,10,26,1.40
2020,10,30,10,27,0.10
2020,10,30,10,28,0.90
2020,10,30,10,29,2.80
2020,10,30,10,30,0.70
2020,10,30,10,31,1.10
2020,10,30,10,32,1.00
2020,10,30,10,33,0.40
2020,10,30,10,34,0.00
2020,10,30,10,35,1.20
2020,10,30,10,36,1.90
2020,10,30,10,37,0.10
2020,10,30,10,38,0.40
2020,10,30,10,39,1.10
2020,10,30,10,40,0.50
2020,10,30,10,41,1.20
2020,10,30,10,42,2.40
2020,10,30,10,43,1.10
2020,10,30,10,44,0.90
2020,10,30,10,45,0.10
2020,10,30,10,46,0.80
2020,10,30,10,47,0.60
2020,10,30,10,48,0.00
2020,10,30,10,49,1.10
2020,10,30,10,50,5.90
2020,10,30,10,51,2.00
2020,10,30,10,52,1.30
2020,10,30,10,53,3.50
2020,10,30,10,54,3.50
2020,10,30,10,55,4.30
2020,10,30,10,56,0.60
2020,10,30,10,57,0.10
2020,10,30,10,58,1.60
2020,10,30,10,59,0.00
2020,10,30,11,00,0.30
2020,10,30,11,01,1.60
2020,10,30,11,02,0.80
2020,10,30,11,03,1.00
2020,10,30,11,04,2.00
2020,10,30,11,05,1.70
2020,10,30,11,06,0.80
2020,10,30,11,07,1.70
2020,10,30,11,08,3.20
2020,10,30,11,09,0.70
2020,10,30,11,10,2.50
2020,10,30,11,11,1.40
2020,10,30,11,12,3.50
2020,10,30,11,13,1.60
2020,10,30,11,14,0.90
2020,10,30,11,15,1.10
2020,10,30,11,16,1.40
2020,10,30,11,17,1.40
2020,10,30,11,18,2.10
2020,10,30,11,19,1.80
2020,10,30,11,20,0.70
2020,10,30,11,21,0.70
2020,10,30,11,22,0.70
2020,10,30,11,23,2.30
2020,10,30,11,24,2.20
2020,10,30,11,25,1.20
2020,10,30,11,26,0.80
2020,10,30,11,27,0.00
2020,10,30,11,28,1.00
2020,10,30,11,29,2.80
2020,10,30,11,30,5.40
2020,10,30,11,31,1.40
2020,10,30,11,32,0.30
2020,10,30,11,33,0.00
2020,10,30,11,34,1.40
2020,10,30,11,35,0.40
2020,10,30,11,36,1.40
2020,10,30,11,37,1.50
2020,10,30,11,38,0.60
2020,10,30,11,39,1.00
2020,10,30,11,40,0.20
2020,10,30,11,41,2.00
2020,10,30,11,42,0.10
2020,10,30,11,43,0.70
2020,10,30,11,44,0.20
2020,10,30,11,45,0.00
2020,10,30,11,46,0.10
2020,10,30,11,47,0.10
2020,10,30,11,48,0.60
2020,10,30,11,49,1.60
2020,10,30,11,50,0.70
2020,10,30,11,51,1.70
2020,10,30,11,52,3.00
2020,10,30,11,53,0.40
2020,10,30,11,54,0.10
2020,10,30,11,55,1.50
2020,10,30,11,56,0.30
2020,10,30,11,57,0.00
2020,10,30,11,58,0.20
2020,10,30,11,59,0.90
2020,10,30,12,00,0.00
2020,10,30,12,01,0.20
2020,10,30,12,02,1.70
2020,10,30,12,03,1.40
2020,10,30,12,04,0.00
2020,10,30,12,05,0.10
2020,10,30,12,06,0.70
2020,10,30,12,07,2.70
2020,10,30,12,08,0.20
2020,10,30,12,09,1.20
2020,10,30,12,10,2.80
2020,10,30,12,11,1.90
2020,10,30,12,12,0.00
2020,10,30,12,13,0.10
2020,10,30,12,14,2.30
2020,10,30,12,15,3.00
2020,10,30,12,16,1.90
2020,10,30,12,17,0.30
2020,10,30,12,18,0.50
2020,10,30,12,19,0.70
2020,10,30,12,20,0.30
2020,10,30,12,21,1.50
2020,10,30,12,22,0.40
2020,10,30,12,23,1.00
2020,10,30,12,24,0.70
2020,10,30,12,25,4.80
2020,10,30,12,26,1.20
2020,10,30,12,27,0.00
2020,10,30,12,28,0.10
2020,10,30,12,29,0.90
2020,10,30,12,30,0.80
2020,10,30,12,31,0.40
2020,10,30,12,32,1.40
2020,10,30,12,33,1.70
2020,10,30,12,34,4.00
2020,10,30,12,35,5.40
2020,10,30,12,36,3.30
2020,10,30,12,37,1.20
2020,10,30,12,38,1.20
2020,10,30,12,39,1.60
2020,10,30,12,40,3.50
2020,10,30,12,41,2.80
2020,10,30,12,42,1.30
2020,10,30,12,43,1.90
2020,10,30,12,44,0.60
2020,10,30,12,45,0.20
2020,10,30,12,46,3.50
2020,10,30,12,47,1.60
2020,10,30,12,48,0.90
2020,10,30,12,49,1.90
2020,10,30,12,50,0.50
2020,10,30,12,51,1.50
2020,10,30,12,52,0.60
2020,10,30,12,53,1.90
2020,10,30,12,54,1.40
2020,10,30,12,55,1.10
2020,10,30,12,56,3.10
2020,10,30,12,57,1.40
2020,10,30,12,58,0.60
2020,10,30,12,59,0.00
2020,10,30,13,00,1.10
2020,10,30,13,01,3.30
2020,10,30,13,02,3.00
2020,10,30,13,03,1.50
2020,10,30,13,04,1.70
2020,10,30,13,05,1.90
2020,10,30,13,06,1.60
2020,10,30,13,07,0.90
2020,10,30,13,08,4.40
2020,10,30,13,09,2.00
2020,10,30,13,10,1.70
2020,10,30,13,11,1.10
2020,10,30,13,12,1.50
2020,10,30,13,13,1.00
2020,10,30,13,14,1.10
2020,10,30,13,15,1.60
2020,10,30,13,16,1.90
2020,10,30,13,17,3.80
2020,10,30,13,18,2.00
2020,10,30,13,19,1.10
2020,10,30,13,20,1.80
2020,10,30,13,21,2.50
2020,10,30,13,22,0.60
2020,10,30,13,23,0.80
2020,10,30,13,24,2.20
2020,10,30,13,25,2.80
2020,10,30,13,26,3.00
2020,10,30,13,27,1.50
2020,10,30,13,28,1.40
2020,10,30,13,29,0.90
2020,10,30,13,30,0.20
2020,10,30,13,31,1.60
2020,10,30,13,32,1.10
2020,10,30,13,33,2.20
2020,10,30,13,34,3.20
2020,10,30,13,35,3.00
2020,10,30,13,36,3.40
2020,10,30,13,37,2.50
2020,10,30,13,38,1.70
2020,10,30,13,39,0.80
2020,10,30,13,40,2.00
2020,10,30,13,41,2.10
2020,10,30,13,42,0.20
2020,10,30,13,43,0.60
2020,10,30,13,44,0.40
2020,10,30,13,45,0.80
2020,10,30,13,46,0.20
2020,10,30,13,47,2.00
2020,10,30,13,48,0.70
2020,10,30,13,49,0.00
2020,10,30,13,50,0.90
2020,10,30,13,51,0.60
2020,10,30,13,52,1.60
2020,10,30,13,53,0.00
2020,10,30,13,54,0.10
2020,10,30,13,55,2.10
2020,10,30,13,56,0.70
2020,10,30,13,57,2.10
2020,10,30,13,58,3.20
2020,10,30,13,59,2.40
2020,10,30,14,00,1.20
2020,10,30,14,01,3.30
2020,10,30,14,02,1.40
2020,10,30,14,03,2.20
2020,10,30,14,04,0.50
2020,10,30,14,05,0.70
2020,10,30,14,06,0.40
2020,10,30,14,07,1.10
2020,10,30,14,08,1.90
2020,10,30,14,09,1.20
2020,10,30,14,10,0.00
2020,10,30,14,11,1.90
2020,10,30,14,12,0.80
2020,10,30,14,13,2.70
2020,10,30,14,14,0.60
2020,10,30,14,15,1.50
2020,10,30,14,16,2.10
2020,10,30,14,17,1.20
2020,10,30,14,18,1.10
2020,10,30,14,19,1.40
2020,10,30,14,20,1.70
2020,10,30,14,21,0.70
2020,10,30,14,22,1.30
2020,10,30,14,23,1.70
2020,10,30,14,24,1.00
2020,10,30,14,25,1.80
2020,10,30,14,26,1.10
2020,10,30,14,27,3.50
2020,10,30,14,28,2.90
2020,10,30,14,29,1.40
2020,10,30,14,30,2.70
2020,10,30,14,31,0.60
2020,10,30,14,32,3.50
2020,10,30,14,33,2.40
2020,10,30,14,34,1.30
2020,10,30,14,35,1.20
2020,10,30,14,36,2.80
2020,10,30,14,37,4.10
2020,10,30,14,38,2.50
2020,10,30,14,39,2.60
2020,10,30,14,40,1.10
2020,10,30,14,41,1.10
2020,10,30,14,42,1.20
2020,10,30,14,43,2.70
2020,10,30,14,44,2.40
2020,10,30,14,45,1.10
2020,10,30,14,46,1.00
2020,10,30,14,47,1.80
2020,10,30,14,48,1.50
2020,10,30,14,49,2.80
2020,10,30,14,50,1.90
2020,10,30,14,51,2.30
2020,10,30,14,52,0.10
2020,10,30,14,53,0.20
2020,10,30,14,54,2.90
2020,10,30,14,55,0.70
2020,10,30,14,56,0.10
2020,10,30,14,57,0.90
2020,10,30,14,58,2.20
2020,10,30,14,59,2.80
2020,10,30,15,00,0.40
2020,10,30,15,01,1.30
2020,10,30,15,02,3.30
2020,10,30,15,03,1.70
2020,10,30,15,04,1.00
2020,10,30,15,05,0.00
2020,10,30,15,06,2.10
2020,10,30,15,07,3.40
2020,10,30,15,08,2.00
2020,10,30,15,09,0.10
2020,10,30,15,10,0.50
2020,10,30,15,11,1.50
2020,10,30,15,12,1.90
2020,10,30,15,13,3.40
2020,10,30,15,14,1.10
2020,10,30,15,15,0.50
2020,10,30,15,16,0.00
2020,10,30,15,17,0.00
2020,10,30,15,18,1.00
2020,10,30,15,19,2.80
2020,10,30,15,20,0.00
2020,10,30,15,21,0.00
2020,10,30,15,22,0.80
2020,10,30,15,23,1.90
2020,10,30,15,24,0.30
2020,10,30,15,25,0.00
2020,10,30,15,26,0.70
2020,10,30,15,27,0.20
2020,10,30,15,28,0.00
2020,10,30,15,29,0.00
2020,10,30,15,30,1.90
2020,10,30,15,31,1.40
2020,10,30,15,32,0.70
2020,10,30,15,33,1.40
2020,10,30,15,34,3.00
2020,10,30,15,35,2.40
2020,10,30,15,36,0.60
2020,10,30,15,37,0.40
2020,10,30,15,38,0.60
2020,10,30,15,39,1.70
2020,10,30,15,40,2.40
2020,10,30,15,41,0.20
2020,10,30,15,42,0.40
2020,10,30,15,43,2.40
2020,10,30,15,44,1.10
2020,10,30,15,45,1.60
2020,10,30,15,46,1.40
2020,10,30,15,47,0.00
2020,10,30,15,48,0.30
2020,10,30,15,49,2.40
2020,10,30,15,50,0.00
2020,10,30,15,51,0.10
2020,10,30,15,52,1.50
2020,10,30,15,53,2.70
2020,10,30,15,54,0.40
2020,10,30,15,55,2.20
2020,10,30,15,56,2.00
2020,10,30,15,57,0.00
2020,10,30,15,58,2.50
2020,10,30,15,59,5.10
2020,10,30,16,00,4.70
2020,10,30,16,01,1.50
2020,10,30,16,02,0.70
2020,10,30,16,03,2.90
2020,10,30,16,04,3.20
2020,10,30,16,05,1.00
2020,10,30,16,06,3.60
2020,10,30,16,07,0.40
2020,10,30,16,08,1.10
2020,10,30,16,09,1.00
2020,10,30,16,10,1.40
2020,10,30,16,11,0.60
2020,10,30,16,12,2.00
2020,10,30,16,13,1.00
2020,10,30,16,14,0.30
2020,10,30,16,15,0.40
2020,10,30,16,16,1.50
2020,10,30,16,17,3.30
2020,10,30,16,18,2.00
2020,10,30,16,19,0.90
2020,10,30,16,20,7.10
2020,10,30,16,21,1.10
2020,10,30,16,22,0.00
2020,10,30,16,23,2.20
2020,10,30,16,24,0.20
2020,10,30,16,25,1.70
2020,10,30,16,26,0.20
2020,10,30,16,27,1.50
2020,10,30,16,28,2.20
2020,10,30,16,29,1.20
2020,10,30,16,30,1.60
2020,10,30,16,31,1.30
2020,10,30,16,32,0.80
2020,10,30,16,33,0.40
2020,10,30,16,34,2.70
2020,10,30,16,35,0.40
2020,10,30,16,36,0.50
2020,10,30,16,37,0.70
2020,10,30,16,38,0.80
2020,10,30,16,39,0.60
2020,10,30,16,40,0.30
2020,10,30,16,41,0.40
2020,10,30,16,42,1.50
2020,10,30,16,43,0.60
2020,10,30,16,44,0.10
2020,10,30,16,45,1.80
2020,10,30,16,46,0.50
2020,10,30,16,47,0.30
2020,10,30,16,48,0.00
2020,10,30,16,49,0.30
2020,10,30,16,50,0.60
2020,10,30,16,51,2.40
2020,10,30,16,52,1.30
2020,10,30,16,53,0.50
2020,10,30,16,54,0.00
2020,10,30,16,55,0.00
2020,10,30,16,56,0.40
2020,10,30,16,57,1.00
2020,10,30,16,58,1.90
2020,10,30,16,59,0.20
2020,10,30,17,00,0.20
2020,10,30,17,01,0.00
2020,10,30,17,02,0.00
2020,10,30,17,03,0.20
2020,10,30,17,04,1.80
2020,10,30,17,05,1.10
2020,10,30,17,06,0.50
2020,10,30,17,07,0.00
2020,10,30,17,08,1.90
2020,10,30,17,09,2.00
2020,10,30,17,10,0.10
2020,10,30,17,11,0.00
2020,10,30,17,12,0.00
2020,10,30,17,13,0.00
2020,10,30,17,14,1.20
2020,10,30,17,15,2.20
2020,10,30,17,16,2.40
2020,10,30,17,17,0.10
2020,10,30,17,18,1.40
2020,10,30,17,19,0.10
2020,10,30,17,20,0.70
2020,10,30,17,21,0.00
2020,10,30,17,22,0.20
2020,10,30,17,23,1.40
2020,10,30,17,24,0.60
2020,10,30,17,25,0.30
2020,10,30,17,26,2.00
2020,10,30,17,27,1.10
2020,10,30,17,28,0.00
2020,10,30,17,29,0.00
2020,10,30,17,30,0.60
2020,10,30,17,31,0.00
2020,10,30,17,32,0.00
2020,10,30,17,33,0.00
2020,10,30,17,34,0.00
2020,10,30,17,35,0.00
2020,10,30,17,36,0.00
2020,10,30,17,37,0.00
2020,10,30,17,38,0.00
2020,10,30,17,39,0.00
2020,10,30,17,40,0.00
2020,10,30,17,41,0.10
2020,10,30,17,42,0.00
2020,10,30,17,43,0.00
2020,10,30,17,44,0.00
2020,10,30,17,45,0.00
2020,10,30,17,46,0.00
2020,10,30,17,47,0.00
2020,10,30,17,48,0.00
2020,10,30,17,49,0.00
2020,10,30,17,50,0.00
2020,10,30,17,51,0.00
2020,10,30,17,52,0.00
2020,10,30,17,53,0.00
2020,10,30,17,54,0.00
2020,10,30,17,55,0.00
2020,10,30,17,56,0.00
2020,10,30,17,57,0.00
2020,10,30,17,58,0.00
2020,10,30,17,59,0.00
2020,10,30,18,00,0.00
2020,10,30,18,01,0.00
2020,10,30,18,02,0.00
2020,10,30,18,03,0.00
2020,10,30,18,04,0.00
2020,10,30,18,05,0.00
2020,10,30,18,06,0.00
2020,10,30,18,07,0.00
2020,10,30,18,08,0.00
2020,10,30,18,09,0.20
2020,10,30,18,10,1.00
2020,10,30,18,11,0.60
2020,10,30,18,12,0.80